User: anonymous   Login
Location: Theydon Bois
(51.6750°N, 0.1050°E)
Time: 14:54:47
(UTC+00:00)
Language:

Meteor 2-21 - Orbit

View from above orbital plane
View from above orbital plane
View from above satellite
View from above satellite

Ground track
Ground track

The orbit data is extracted from the following two-line orbital elements,

1 22782U 93055A   18020.16951586  .00000014  00000-0 -90540-6 0  9995
2 22782  82.5472 211.3857 0022278 179.2962 317.8360 13.83806076231708
Epoch (UTC): 20 January 2018 04:04:06
Eccentricity: 0.0022278
inclination: 82.5472°
perigee height: 934 km
apogee height: 967 km
right ascension of ascending node: 211.3857°
argument of perigee: 179.2962°
revolutions per day: 13.83806076
mean anomaly at epoch: 317.8360°
orbit number at epoch: 23170

The dashed part of the orbit path shows where the satellite is in the earth's shadow,  

DLR